CAPE
0 0 0 0 0 0 0 0 0 0 0 0 0 0 0 0 0 0 0 0 289 491 447 521 681 543 231 100 26 18 7 6 6 7 7 9 59 42 178 376 397 362 180 18 12 9 5 2 3
0 0 0 0 0 0 0 0 0 0 0 0 0 0 0 0 0 0 0 184 309 319 246 146 242 187 61 5 4 6 3 3 2 2 2 3 7 4 5 8 7 7 7 6 3 3 2 1 0
0 0 0 0 0 0 0 0 0 0 0 0 0 0 0 0 0 0 0 74 20 7 3 12 116 97 6 6 4 3 0 0 0 0 0 0 0 2 2 2 2 2 1 0 0 0 0 0 0
0 0 0 0 0 0 0 0 0 0 0 0 0 0 0 0 0 0 0 0 0 0 1 1 44 17 4 4 4 1 0 0 0 0 0 0 0 0 0 0 0 0 0 0 0 0 0 0 0
0 0 0 0 0 0 0 0 0 0 0 0 0 0 0 0 0 0 0 0 0 0 0 0 19 15 11 6 4 2 0 0 0 0 0 0 0 0 0 0 0 0 0 0 0 0 0 0 0
0 0 0 0 0 0 0 0 0 0 0 0 0 0 0 0 0 0 0 0 0 0 0 0 4 1 10 9 9 2 1 0 1 0 0 0 0 0 0 0 0 0 0 0 0 0 0 0 0
0 0 0 0 0 0 0 0 0 0 0 0 0 0 0 0 0 0 0 0 0 0 0 0 0 0 5 9 9 9 4 0 0 0 0 0 0 0 0 0 0 0 0 0 0 0 0 0 0
0 0 0 0 0 0 0 0 0 0 0 0 0 0 0 0 0 0 0 0 0 0 0 0 0 0 0 0 0 0 0 0 0 0 0 0 0 0 0 0 0 0 0 0 0 0 0 0 0
0 0 0 0 0 0 0 0 0 0 0 0 0 0 0 0 0 0 0 0 0 0 0 0 0 0 0 0 0 0 0 0 0 0 0 0 0 0 0 0 0 0 0 0 0 0 0 0 0
0 0 0 0 0 0 0 0 0 0 0 0 0 0 0 0 0 0 0 0 0 0 0 0 0 0 0 0 0 0 0 0 0 0 0 0 0 0 0 0 0 0 0 0 0 0 0 0 0
0 0 0 0 0 0 0 0 0 0 0 0 0 0 0 0 0 0 0 0 0 0 0 0 0 0 0 0 0 0 0 0 0 0 0 0 0 0 0 0 0 0 0 0 0 0 0 0 0
0 0 0 0 0 0 0 0 0 0 0 0 0 0 0 0 0 0 0 0 0 0 0 0 0 0 0 0 0 0 0 0 0 0 0 0 0 0 0 0 0 0 0 0 0 0 0 0 0
0 0 0 0 0 0 0 0 0 0 0 0 0 0 0 0 0 0 0 0 0 0 0 0 0 0 0 0 0 0 0 0 0 0 0 0 0 0 0 0 0 0 0 0 0 0 0 0 0
0 0 0 0 0 0 0 0 0 0 0 0 0 0 0 0 0 0 0 0 0 0 0 0 0 0 0 0 0 0 0 0 0 0 0 0 0 0 0 0 0 0 0 0 0 0 0 0 0
0 0 0 0 0 0 0 0 0 0 0 0 0 0 0 0 0 0 0 0 0 0 0 0 0 0 0 0 0 0 0 0 0 0 0 0 0 0 0 0 0 0 0 0 0 0 0 0 0
0 0 0 0 0 0 0 0 0 0 0 0 0 0 0 0 0 0 0 0 0 0 0 0 0 0 0 0 0 0 0 0 0 0 0 0 0 0 0 0 0 0 0 0 0 0 0 0 0
0 0 0 0 0 0 0 0 0 0 0 0 0 0 0 0 0 0 0 0 0 0 0 0 0 0 0 0 0 0 0 0 0 0 0 0 0 0 0 0 0 0 0 0 0 0 0 0 0
0 0 0 0 0 0 0 0 0 0 0 0 0 0 0 0 0 0 0 0 0 0 0 0 0 0 0 0 0 0 0 0 0 0 0 0 0 0 0 0 0 0 0 0 0 0 0 0 0
0 0 0 0 0 0 0 0 0 0 0 0 0 0 0 0 0 0 0 0 0 0 0 0 0 0 0 0 0 0 0 0 0 0 0 0 0 0 0 0 0 0 0 0 0 0 0 0 0
0 0 0 0 0 0 0 0 0 0 0 0 0 0 0 0 0 0 0 0 0 0 0 0 0 0 0 0 0 0 0 0 0 0 0 0 0 0 0 0 0 0 0 0 0 0 0 0 0
0 0 0 0 0 0 0 0 0 0 0 0 0 0 0 0 0 0 0 0 0 0 0 0 0 0 0 0 0 0 0 0 0 0 0 0 0 0 0 0 0 0 0 0 0 0 0 0 0
6 0 0 0 0 0 0 0 0 0 0 0 0 0 0 0 0 0 0 0 0 0 0 0 0 0 0 0 0 0 0 0 0 0 0 0 0 0 0 0 0 0 0 0 0 0 0 0 0
0 0 0 0 6 2 0 1 0 0 0 0 0 0 0 0 0 0 0 0 0 0 0 0 0 0 0 0 0 0 0 0 0 0 0 0 0 0 0 0 0 0 0 0 0 0 0 0 0
0 2 1 2 0 11 0 0 0 0 0 0 0 0 0 0 0 0 0 0 0 0 0 0 0 0 0 0 0 0 0 0 0 0 0 0 0 0 0 0 0 0 0 0 0 0 0 0 0
0 2 19 19 24 14 0 0 0 0 0 0 0 0 0 0 0 0 0 0 0 0 0 0 0 0 0 0 0 0 0 0 0 0 0 0 0 0 0 0 0 0 0 0 0 0 0 0 0
5 0 0 2 0 0 0 0 0 0 0 0 0 0 0 0 0 0 0 0 0 0 0 0 0 0 0 0 0 0 0 0 0 0 0 0 0 0 0 0 0 0 0 0 0 0 0 0 0
2 0 0 0 0 0 0 0 0 0 0 0 0 0 0 0 0 0 0 0 0 0 0 0 0 0 0 0 0 0 0 0 0 0 0 0 0 0 0 0 0 0 0 0 0 0 0 0 0
5 0 4 0 1 1 1 0 0 0 0 0 0 0 0 0 0 0 0 0 0 0 0 0 0 0 0 0 0 0 0 0 0 0 0 0 0 0 0 0 0 0 0 0 0 0 0 0 0
8 8 3 0 0 0 0 0 0 0 0 0 0 0 0 0 0 0 0 0 0 0 0 0 0 0 0 0 0 0 0 0 0 0 0 0 0 0 0 0 0 0 0 0 0 0 0 0 0
0 0 0 0 0 0 0 0 0 0 0 0 0 0 0 0 0 0 0 0 0 0 0 0 0 0 0 0 0 0 0 0 0 0 0 0 0 0 0 0 0 0 0 0 0 0 0 0 0
CIN
0 0 0 0 0 0 0 0 0 0 0 0 0 0 0 0 0 0 0 0 -117 -58 -56 -34 -11 -9 -48 -113 -135 -171 -144 0 0 0 0 -115 -74 -80 -31 -12 -6 -7 -20 -46 0 0 0 0 0
0 0 0 0 0 0 0 0 0 0 0 0 0 0 0 0 0 0 0 -143 -117 -85 -75 -88 -48 -49 -96 -60 0 0 0 0 0 0 0 0 0 0 0 -1 -3 -2 -1 0 0 0 0 0 0
0 0 0 0 0 0 0 0 0 0 0 0 0 0 0 0 0 0 0 -226 -82 -46 -39 -128 -63 -75 0 0 0 0 0 0 0 0 0 0 0 0 0 0 0 0 0 0 0 0 0 0 0
0 0 0 0 0 0 0 0 0 0 0 0 0 0 0 0 0 0 0 -48 0 0 -34 -3 -86 -14 -15 0 0 0 0 0 0 0 0 0 0 0 0 0 0 0 0 0 0 0 0 0 0
0 0 0 0 0 0 0 0 0 0 0 0 0 0 0 0 0 0 0 0 0 0 0 0 -11 -10 -7 0 0 0 0 0 0 0 0 0 0 0 0 0 0 0 0 0 0 0 0 0 0
0 0 0 0 0 0 0 0 0 0 0 0 0 0 0 0 0 0 0 0 0 0 0 0 -8 -9 -3 0 0 0 0 0 0 0 0 0 0 0 0 0 0 0 0 0 0 0 0 0 0
0 0 0 0 0 0 0 0 0 0 0 0 0 0 0 0 0 0 0 0 0 0 0 0 0 0 -7 -3 -2 0 0 0 0 0 0 0 0 0 0 0 0 0 0 0 0 0 0 0 0
0 0 0 0 0 0 0 0 0 0 0 0 0 0 0 0 0 0 0 0 0 0 0 0 0 0 0 0 0 0 0 0 0 0 0 0 0 0 0 0 0 0 0 0 0 0 0 0 0
0 0 0 0 0 0 0 0 0 0 0 0 0 0 0 0 0 0 0 0 0 0 0 0 0 0 0 0 0 0 0 0 0 0 0 0 0 0 0 0 0 0 0 0 0 0 0 0 0
0 0 0 0 0 0 0 0 0 0 0 0 0 0 0 0 0 0 0 0 0 0 0 0 0 0 0 0 0 0 0 0 0 0 0 0 0 0 0 0 0 0 0 0 0 0 0 0 0
0 0 0 0 0 0 0 0 0 0 0 0 0 0 0 0 0 0 0 0 0 0 0 0 0 0 0 0 0 0 0 0 0 0 0 0 0 0 0 0 0 0 0 0 0 0 0 0 0
0 0 0 0 0 0 0 0 0 0 0 0 0 0 0 0 0 0 0 0 0 0 0 0 0 0 0 0 0 0 0 0 0 0 0 0 0 0 0 0 0 0 0 0 0 0 0 0 0
0 0 0 0 0 0 0 0 0 0 0 0 0 0 0 0 0 0 0 0 0 0 0 0 0 0 0 0 0 0 0 0 0 0 0 0 0 0 0 0 0 0 0 0 0 0 0 0 0
0 0 0 0 0 0 0 0 0 0 0 0 0 0 0 0 0 0 0 0 0 0 0 0 0 0 0 0 0 0 0 0 0 0 0 0 0 0 0 0 0 0 0 0 0 0 0 0 0
0 0 0 0 0 0 0 0 0 0 0 0 0 0 0 0 0 0 0 0 0 0 0 0 0 0 0 0 0 0 0 0 0 0 0 0 0 0 0 0 0 0 0 0 0 0 0 0 0
0 0 0 0 0 0 0 0 0 0 0 0 0 0 0 0 0 0 0 0 0 0 0 0 0 0 0 0 0 0 0 0 0 0 0 0 0 0 0 0 0 0 0 0 0 0 0 0 0
0 0 0 0 0 0 0 0 0 0 0 0 0 0 0 0 0 0 0 0 0 0 0 0 0 0 0 0 0 0 0 0 0 0 0 0 0 0 0 0 0 0 0 0 0 0 0 0 0
0 0 0 0 0 0 0 0 0 0 0 0 0 0 0 0 0 0 0 0 0 0 0 0 0 0 0 0 0 0 0 0 0 0 0 0 0 0 0 0 0 0 0 0 0 0 0 0 0
0 0 0 0 0 0 0 0 0 0 0 0 0 0 0 0 0 0 0 0 0 0 0 0 0 0 0 0 0 0 0 0 0 0 0 0 0 0 0 0 0 0 0 0 0 0 0 0 0
0 0 0 0 0 0 0 0 0 0 0 0 0 0 0 0 0 0 0 0 0 0 0 0 0 0 0 0 0 0 0 0 0 0 0 0 0 0 0 0 0 0 0 0 0 0 0 0 0
0 0 0 0 0 0 0 0 0 0 0 0 0 0 0 0 0 0 0 0 0 0 0 0 0 0 0 0 0 0 0 0 0 0 0 0 0 0 0 0 0 0 0 0 0 0 0 0 0
-1 0 0 0 0 0 -6 0 0 0 0 0 0 0 0 0 0 0 0 0 0 0 0 0 0 0 0 0 0 0 0 0 0 0 0 0 0 0 0 0 0 0 0 0 0 0 0 0 0
-9 0 0 -1 -7 -10 -14 -2 0 0 0 0 0 0 0 0 0 0 0 0 0 0 0 0 0 0 0 0 0 0 0 0 0 0 0 0 0 0 0 0 0 0 0 0 0 0 0 0 0
0 -2 -22 -19 -9 -7 0 -1 0 0 0 0 0 0 0 0 0 0 0 0 0 0 0 0 0 0 0 0 0 0 0 0 0 0 0 0 0 0 0 0 0 0 0 0 0 0 0 0 0
0 -19 -7 -6 -2 -12 0 0 0 0 0 0 0 0 0 0 0 0 0 0 0 0 0 0 0 0 0 0 0 0 0 0 0 0 0 0 0 0 0 0 0 0 0 0 0 0 0 0 0
0 0 -2 -9 0 0 0 -16 0 0 0 0 0 0 0 0 0 0 0 0 0 0 0 0 0 0 0 0 0 0 0 0 0 0 0 0 0 0 0 0 0 0 0 0 0 0 0 0 0
-1 -1 0 0 0 0 0 0 0 0 0 0 0 0 0 0 0 0 0 0 0 0 0 0 0 0 0 0 0 0 0 0 0 0 0 0 0 0 0 0 0 0 0 0 0 0 0 0 0
-7 0 -9 0 -3 -10 -2 0 0 0 0 0 0 0 0 0 0 0 0 0 0 0 0 0 0 0 0 0 0 0 0 0 0 0 0 0 0 0 0 0 0 0 0 0 0 0 0 0 0
0 -2 -4 0 0 0 0 0 0 0 0 0 0 0 0 0 0 0 0 0 0 0 0 0 0 0 0 0 0 0 0 0 0 0 0 0 0 0 0 0 0 0 0 0 0 0 0 0 0
0 0 0 0 0 0 0 0 0 0 0 0 0 0 0 0 0 0 0 0 0 0 0 0 0 0 0 0 0 0 0 0 0 0 0 0 0 0 0 0 0 0 0 0 0 0 0 0 0
Wind_Speed
3 3 1 6 4 5 4 9 4 7 2 3 5 4 7 5 3 5 3 7 10 11 9 12 17 17 17 16 15 16 17 16 16 15 15 15 13 13 13 15 15 15 15 13 12 11 11 10 10
2 1 5 3 5 2 7 6 10 9 4 2 7 5 4 2 3 6 6 7 13 12 10 11 16 17 17 16 16 17 17 16 16 16 15 15 15 14 13 13 13 12 12 11 10 10 10 10 10
2 2 5 5 5 7 6 7 10 6 5 5 4 6 9 8 2 12 5 13 13 11 10 10 16 18 17 17 16 17 16 16 16 16 15 15 15 14 14 14 13 13 12 11 10 10 10 10 10
3 5 4 3 10 8 7 2 3 2 3 1 4 5 2 3 11 9 13 15 13 11 11 12 15 17 18 16 16 16 16 16 17 16 15 15 15 14 14 13 13 12 11 10 10 10 10 11 11
4 3 2 4 9 7 7 6 2 6 3 5 5 5 4 6 5 16 14 13 14 11 10 11 14 16 17 16 16 16 16 16 16 16 15 15 14 14 13 13 12 11 10 10 10 10 11 11 11
2 3 1 9 8 5 8 9 5 6 5 2 5 9 5 2 12 13 13 12 14 12 10 10 10 14 15 15 16 16 16 15 15 15 15 14 14 14 13 12 12 10 9 9 9 10 10 10 10
6 4 6 5 6 6 11 7 6 13 7 8 8 9 1 4 9 8 10 11 11 10 10 7 7 12 11 13 13 15 15 15 15 15 14 14 13 13 12 11 10 9 9 9 9 10 9 9 10
6 5 4 7 11 15 7 4 6 10 10 1 8 7 6 9 9 8 7 8 9 10 10 9 7 7 6 7 11 12 14 14 14 14 13 13 13 12 11 9 9 9 8 8 8 8 8 8 10
4 3 8 10 10 11 3 3 3 2 4 2 1 7 4 16 13 12 6 4 5 6 8 10 8 7 6 7 8 10 13 13 14 12 12 8 4 6 7 8 8 8 6 6 7 8 8 9 9
6 7 13 8 10 7 5 5 4 2 4 2 1 2 5 20 17 18 17 14 11 10 8 10 9 8 6 6 7 6 6 4 4 5 5 4 5 5 5 5 6 6 6 6 7 7 8 7 4
8 16 18 6 7 6 3 4 6 3 4 8 10 7 12 13 15 14 16 16 16 12 9 10 11 8 8 5 4 3 3 3 3 5 5 5 4 3 3 2 2 2 5 3 4 4 3 5 3
7 13 18 9 8 3 5 3 3 7 9 6 10 17 15 18 18 18 16 15 14 13 13 11 12 11 8 7 6 6 5 4 4 5 6 4 3 4 3 2 3 2 2 3 3 2 3 4 4
14 2 8 17 10 6 4 7 8 7 11 8 5 9 18 18 19 15 11 10 12 14 13 13 12 12 10 10 7 6 5 5 5 5 6 5 4 4 3 3 2 2 2 2 2 2 3 4 5
4 17 18 10 11 7 9 14 8 8 13 6 10 14 15 17 19 10 10 13 16 16 16 15 14 13 11 8 9 7 5 5 4 4 5 6 5 5 4 3 3 2 2 1 1 1 2 3 3
8 14 16 18 9 8 7 16 20 13 11 9 11 11 14 18 13 19 22 18 19 16 16 18 16 13 13 11 9 6 6 6 5 4 6 6 5 5 5 4 3 3 1 2 2 2 2 3 3
4 4 18 13 7 7 11 22 10 15 12 16 12 11 13 18 19 20 17 18 15 14 16 14 13 14 13 11 8 7 6 6 5 5 4 6 6 6 5 4 4 3 2 2 1 1 2 2 3
8 11 9 10 7 8 16 16 16 12 10 14 14 14 13 13 12 16 17 18 15 17 17 16 15 15 13 11 8 7 8 6 5 5 5 6 6 6 5 4 4 4 2 1 1 1 1 1 3
18 4 6 7 10 16 18 22 7 8 16 19 13 10 10 13 19 19 16 13 15 16 17 18 14 15 13 8 6 4 5 5 5 5 5 7 5 6 5 4 4 4 3 2 1 0 1 2 3
21 13 19 13 13 5 17 23 17 14 9 8 9 12 11 13 14 9 10 13 12 13 17 18 17 14 12 8 7 6 8 4 4 4 7 7 6 6 6 4 4 3 3 3 1 1 1 2 2
19 22 22 7 8 14 18 23 7 11 16 17 14 12 11 8 8 10 10 10 16 18 17 17 18 17 14 11 8 5 5 2 3 4 5 7 7 7 6 5 4 5 4 3 1 1 0 1 2
23 22 22 15 3 13 3 18 13 6 7 8 12 17 10 11 12 10 11 15 10 15 18 17 17 18 15 13 8 5 5 4 2 3 4 4 7 7 6 6 4 4 3 3 2 2 3 2 1
24 21 23 14 8 16 8 18 15 14 16 17 18 10 10 11 9 11 17 14 16 17 13 15 15 16 13 15 13 13 12 6 4 4 3 5 6 6 6 6 5 4 3 4 3 2 2 3 3
21 20 18 14 17 15 10 10 11 8 16 21 18 15 17 18 18 19 19 22 22 17 15 13 14 14 14 14 14 11 8 5 4 4 7 5 5 6 6 6 6 5 3 3 4 3 3 2 2
19 6 16 16 12 18 23 17 19 13 19 12 19 18 20 21 21 18 20 14 13 11 13 13 16 14 14 13 12 14 13 9 6 5 6 4 4 4 5 6 5 5 4 4 3 4 4 4 3
14 14 10 13 15 14 13 14 22 10 18 20 20 21 18 19 19 17 16 16 14 15 13 11 14 12 14 13 12 11 11 10 11 9 8 7 4 3 6 6 6 4 4 5 4 4 4 4 2
12 16 10 13 4 6 5 10 14 15 22 17 13 13 7 9 10 14 16 16 16 17 15 15 14 13 13 13 10 8 8 6 5 7 6 6 5 5 6 6 5 5 5 5 5 3 4 4 3
7 14 10 3 3 3 5 6 9 6 11 13 15 8 18 17 9 8 10 13 15 15 16 17 16 14 12 11 9 7 7 7 6 6 5 4 5 3 5 6 6 5 4 4 4 3 3 4 2
8 5 2 4 12 14 5 3 7 9 11 13 12 10 9 6 5 7 9 10 10 12 11 12 12 14 12 10 8 8 7 6 5 5 6 6 5 5 5 5 5 5 4 3 3 2 2 3 2
7 7 3 3 6 4 3 8 11 16 5 7 10 8 7 4 6 6 7 7 9 10 11 10 11 12 10 10 7 8 6 6 5 5 5 6 5 5 6 6 6 6 5 4 4 4 3 4 5
5 8 11 6 5 3 5 8 1 0 4 3 11 8 2 4 6 8 9 9 9 9 9 9 7 9 7 6 7 7 7 7 6 5 5 5 5 3 5 5 5 4 4 4 5 4 4 7 7
Wind_Direction
4 331 65 49 62 63 255 254 255 290 289 225 121 140 139 73 163 198 307 144 138 136 136 132 126 125 133 131 130 125 122 119 116 113 108 102 96 96 94 88 87 83 80 74 67 60 53 51 48
33 123 38 100 101 176 258 246 253 229 244 186 111 113 77 122 122 135 114 160 128 129 133 132 129 139 135 137 135 128 124 123 119 113 108 104 103 104 98 89 84 85 85 83 77 69 62 56 49
58 27 97 140 157 201 227 229 239 223 203 238 110 42 151 169 151 151 161 136 121 124 129 131 135 141 139 139 137 130 131 128 123 117 113 109 105 103 101 99 95 90 87 80 69 59 51 45 40
107 11 22 131 217 244 211 292 356 163 276 227 127 116 346 225 154 162 146 127 124 127 129 139 147 146 137 143 139 137 135 130 125 123 115 113 110 105 101 96 91 88 81 74 65 55 45 36 30
35 58 162 234 244 233 236 240 231 269 229 204 147 182 165 316 125 136 139 134 131 138 140 148 157 148 134 153 146 141 135 132 129 124 122 119 115 109 105 101 95 89 82 71 60 47 38 31 24
72 107 117 231 251 259 266 223 227 217 246 212 105 135 194 121 145 151 139 139 138 143 148 152 154 138 150 159 150 142 139 135 130 127 126 124 118 114 110 107 103 93 81 68 55 43 32 26 23
152 121 221 233 246 283 238 165 211 229 206 227 151 140 252 192 172 144 142 133 139 145 142 141 147 130 161 161 147 144 142 139 135 130 128 122 119 114 109 104 98 91 79 64 50 39 32 26 17
148 134 211 232 236 261 253 216 217 176 220 86 149 183 205 207 165 120 131 141 148 152 150 136 118 114 122 128 132 137 137 137 135 130 127 124 120 109 99 87 93 87 78 69 61 47 36 30 25
147 138 215 227 193 227 226 348 299 283 144 34 32 152 203 154 137 135 135 141 155 164 156 139 131 128 127 122 126 124 134 139 137 135 129 112 107 109 108 111 91 83 94 74 56 53 47 27 17
175 185 216 210 216 236 169 198 273 241 189 188 15 2 126 152 162 161 173 177 177 175 170 152 146 143 136 133 119 116 113 117 130 138 133 133 136 138 123 120 109 94 67 67 54 45 33 30 12
203 226 224 234 205 211 220 305 180 193 251 214 197 164 148 158 176 175 183 185 182 170 171 167 156 150 141 131 123 125 133 140 150 157 150 150 131 117 124 112 74 83 66 51 43 30 27 15 9
247 223 230 240 235 219 241 211 231 187 230 266 195 165 159 172 184 188 184 182 175 178 178 171 163 165 157 150 163 164 160 165 165 171 161 147 139 140 138 131 125 100 72 70 45 27 2 2 352
248 271 240 242 240 221 242 227 224 226 253 242 115 163 177 182 192 197 189 175 165 179 181 179 171 171 169 163 166 171 177 170 168 166 167 152 148 149 144 143 131 126 111 85 39 23 5 348 343
239 223 249 267 254 237 243 262 170 234 241 217 162 190 191 192 197 177 184 185 186 178 180 179 178 177 167 170 171 174 163 168 162 163 163 160 155 153 155 153 142 129 120 102 72 21 0 340 335
235 261 263 242 245 233 203 251 237 229 230 209 198 203 204 207 186 196 199 191 191 195 176 181 178 168 173 174 172 166 170 157 158 170 166 156 154 160 150 151 138 150 123 88 47 20 14 359 341
260 231 239 242 189 223 177 246 229 223 225 235 219 222 208 212 200 207 196 202 193 185 188 179 182 175 169 171 165 163 163 159 156 158 161 159 150 149 150 145 146 150 112 95 63 27 350 351 334
217 249 229 251 208 203 200 255 230 237 228 237 236 233 221 221 220 206 203 196 186 185 182 180 180 178 174 170 161 154 160 160 160 154 161 169 160 158 149 150 154 147 123 85 31 31 67 311 312
224 211 239 191 200 200 228 243 244 233 230 234 229 231 222 211 215 211 200 192 186 185 181 177 176 175 170 157 139 131 147 158 163 166 168 164 160 157 150 154 157 151 135 122 99 88 298 257 287
229 228 241 241 239 230 231 250 235 235 248 233 240 233 226 222 225 201 188 189 172 175 174 178 172 173 160 159 158 164 181 167 163 176 163 161 163 162 158 163 153 146 145 170 181 205 55 326 332
222 231 246 270 226 228 249 256 210 216 235 228 227 235 231 225 201 194 182 180 183 179 179 177 179 170 173 171 164 151 154 163 161 158 169 165 161 163 158 160 165 161 151 167 177 158 71 265 11
222 221 231 222 190 248 286 271 238 229 249 255 240 242 233 215 214 194 189 194 180 178 182 180 176 173 172 160 139 105 84 72 114 176 165 177 160 163 152 161 162 163 156 183 184 168 166 193 308
224 215 229 226 218 242 159 263 247 238 237 242 236 221 223 210 212 204 196 191 195 198 176 174 171 171 167 162 166 165 177 166 193 154 149 164 164 161 157 161 165 176 173 177 188 166 184 150 209
226 219 225 224 230 242 221 250 247 205 234 237 238 222 220 222 205 209 203 203 201 182 175 163 162 169 167 169 169 166 165 151 141 137 156 163 168 163 165 166 167 173 190 190 181 166 156 157 153
221 152 218 225 224 228 224 215 254 221 227 239 249 241 227 227 227 216 214 202 192 170 169 165 163 166 164 166 165 170 169 156 144 150 161 167 166 170 172 168 170 176 186 191 186 171 172 157 134
211 180 212 215 218 238 211 202 238 203 230 230 236 245 237 233 231 225 200 189 176 173 165 157 162 162 165 164 164 163 165 161 166 166 167 161 158 178 191 171 167 175 184 190 180 170 170 165 148
210 197 194 217 204 229 149 218 242 222 245 250 244 248 258 247 233 212 201 188 178 167 160 160 164 159 159 158 157 151 146 158 160 161 154 168 175 179 170 175 169 182 183 189 194 177 168 163 167
183 207 220 83 347 114 184 276 305 213 235 253 246 249 248 239 226 200 176 176 168 162 163 159 160 157 153 147 136 140 143 144 153 157 149 159 150 165 154 157 151 147 135 153 161 173 166 130 179
217 158 225 243 221 232 235 245 227 269 225 251 278 251 258 252 168 141 141 148 151 145 136 139 146 148 141 138 143 146 145 140 139 139 151 150 134 128 139 138 142 140 140 134 134 161 148 148 179
175 204 198 162 157 175 199 246 205 235 230 257 272 292 256 160 133 124 117 109 118 116 127 125 129 133 137 139 133 136 139 134 135 142 143 148 134 154 162 163 162 167 165 180 168 184 180 208 220
199 199 181 181 221 214 169 266 297 325 228 249 281 283 175 115 113 113 107 107 103 101 105 106 110 119 120 122 128 136 134 136 148 152 159 154 156 157 167 172 170 173 178 184 192 202 203 218 218